Location: Mount Lemmon
(32.4432°N, 110.7577°W)
Time: 13:49:52
(UTC-07:00)

ISS - Visible Passes

Search period start: 22 February 2018 00:00
Search period end: 04 March 2018 00:00
Orbit: 402 x 407 km, 51.6° (Epoch: 23 February)

Date Brightness Start Highest point End Pass type
(mag) Time Alt. Az. Time Alt. Az. Time Alt. Az.
22 Feb -0.5 06:21:28 10° SSE 06:22:48 12° SE 06:24:07 10° ESE visible
24 Feb -2.1 06:11:34 10° SSW 06:14:32 34° SE 06:17:32 10° ENE visible
25 Feb -0.9 05:20:23 10° SSE 05:22:26 16° SE 05:24:30 10° E visible
26 Feb -3.9 06:03:19 11° SW 06:06:23 73° NW 06:09:38 10° NE visible
27 Feb -3.0 05:13:59 46° SE 05:14:09 46° SE 05:17:17 10° ENE visible
28 Feb -0.2 04:24:26 10° ENE 04:24:26 10° ENE 04:24:30 10° ENE visible
28 Feb -2.6 05:57:07 21° WNW 05:58:20 26° NW 06:01:09 10° NNE visible
01 Mar -2.2 05:07:21 28° NNE 05:07:21 28° NNE 05:09:09 10° NE visible
02 Mar -1.6 05:50:05 12° NW 05:50:24 13° NNW 05:51:54 10° N visible
03 Mar -1.0 05:00:02 12° N 05:00:02 12° N 05:00:27 10° NNE visible
